Find Starlink 4711

NORAD ID: 53701 Int'l Des: 2022-107 Owner: SPXS Country: US Constellation: starlink operational
LEOCIRCULAR

当前视图

正在加载3D地球...

About Starlink 4711

Starlink 4711 (NORAD 53701) is a starlink constellation satellite (v1.5) launched Sep 5, 2022 by SPXS of US. It operates in LEO, CIRCULAR orbit with a mass of 305.00 kg.

即将过境

Passes for default location (London). Set your location on the main map for personalized predictions.

高度历史

Loading altitude history...

两行轨道根数

1 53701U 22107B 26263.23677407 .00000365 00000-0 21386-4 0 9991
2 53701 53.1638 86.6191 0001349 90.2575 269.8583 15.35398697224274
Epoch: Sep 20, 2026 • Age: 26 hours

当前状态

高度 461.1 km
远地点 / 近地点 N/A
速度 7.64 km/s
星下点 32.00°N, 124.51°E
发射日期 Sep 5, 2022
运行时间 4 years
类型 internet

技术详情

分类 Payload
质量 305.00 kg
干质量 290.00 kg
长度 0.20 m
跨度 9.00 m
形状 ? Box + pan
制造商 SPXS
平台类型 Starlink
阶段状态 In Orbit
所有者/国家 SPXS/US

Most Searched